Motorsport-Marktplatz
SQS Schaltung für Mitsubishi Evo 5 -8
€1.000,00
SQS Schaltung für Mitsubishi Evo 5 -8 - Verkaufe SQS Schaltung 5 Gang für Mitsubishi Evo 5 -8.
Grund: Umbau auf sequentielles Getriebe.[...]
 
ANZEIGE
 
 
Formel-1-Quiz
 
ANZEIGE
 
 
Apps zu Formel 1, MotoGP, DTM und Co. für Android, iOS und Windows Phone
Tests: Zeiten, Termine, Statistik

Exklusives "Testcenter"

Im "Testcenter" finden Sie Zeiten, Termine und unzählige Statistiken zu den Testfahrten in der Formel 1!
Zum Testcenter
Motorsport-Total Business-Club
Sie sind hier: Home > Formel 1 > Ergebnisse > Italien 2017

 GP Italien in Monza / Qualifying

Session-Informationen im Überblick
Datum 02. September 2017 Wetter Regen
Zeit (MESZ) 14:00 Uhr Lufttemp. 14°C
Ortszeit 14:00 Uhr Luftfeucht. 81-89%
Teilnehmer 20 Luftdruck 987 mBar
Rekord Rennen 1:21.046 Minuten Asphalt 15-17°C
Rekord Qualifying 1:20.089 Minuten Wind 1 m/s, Süden
Einzel-Sessions
Gesamtklassement
Klassement der dritten Qualifyingsession
Klassement der zweiten Qualifyingsession
Klassement der ersten Qualifyingsession

Gesamtklassement

Pos. Nr. Fahrer Team Zeit Abstand auf V. Rnd.
1 44 L. Hamilton Mercedes 1:35.554     8
2 33 M. Verstappen Red Bull 1:36.702 +0:01.148 +0:01.148 8
3 3 D. Ricciardo Red Bull 1:36.841 +0:01.287 +0:00.139 8
4 18 L. Stroll Williams 1:37.032 +0:01.478 +0:00.191 8
5 31 E. Ocon Force India 1:37.719 +0:02.165 +0:00.687 8
6 77 V. Bottas Mercedes 1:37.833 +0:02.279 +0:00.114 7
7 7 K. Räikkönen Ferrari 1:37.987 +0:02.433 +0:00.154 8
8 5 S. Vettel Ferrari 1:38.064 +0:02.510 +0:00.077 8
9 19 F. Massa Williams 1:38.251 +0:02.697 +0:00.187 8
10 2 S. Vandoorne McLaren 1:39.157 +0:03.603 +0:00.906 5
11 11 S. Perez Force India 1:37.582     9
12 27 N. Hülkenberg Renault 1:38.059 +0:00.477 +0:00.477 9
13 14 F. Alonso McLaren 1:38.202 +0:00.620 +0:00.143 4
14 26 D. Kwjat Toro Rosso 1:38.245 +0:00.663 +0:00.043 10
15 55 C. Sainz Toro Rosso 1:38.526 +0:00.944 +0:00.281 10
16 20 K. Magnussen Haas F1 1:40.489     12
17 30 J. Palmer Renault 1:40.646 +0:00.157 +0:00.157 10
18 9 M. Ericsson Sauber 1:41.732 +0:01.243 +0:01.086 11
19 94 P. Wehrlein Sauber 1:41.875 +0:01.386 +0:00.143 9
  107-Prozent-Zeit 1:42.416
20 8 R. Grosjean Haas F1 1:43.355 +0:02.866 +0:01.480 3
auf V. = auf Vordermann, Rnd. = Runden

 

Klassement der dritten Qualifyingsession

Pos. Nr. Fahrer Team Zeit Abstand auf V. Rnd.
1 44 L. Hamilton Mercedes 1:35.554     8
2 33 M. Verstappen Red Bull 1:36.702 +0:01.148 +0:01.148 8
3 3 D. Ricciardo Red Bull 1:36.841 +0:01.287 +0:00.139 8
4 18 L. Stroll Williams 1:37.032 +0:01.478 +0:00.191 8
5 31 E. Ocon Force India 1:37.719 +0:02.165 +0:00.687 8
6 77 V. Bottas Mercedes 1:37.833 +0:02.279 +0:00.114 7
7 7 K. Räikkönen Ferrari 1:37.987 +0:02.433 +0:00.154 8
8 5 S. Vettel Ferrari 1:38.064 +0:02.510 +0:00.077 8
9 19 F. Massa Williams 1:38.251 +0:02.697 +0:00.187 8
10 2 S. Vandoorne McLaren 1:39.157 +0:03.603 +0:00.906 5
  107-Prozent-Zeit 1:42.242
auf V. = auf Vordermann, Rnd. = Runden

 

Klassement der zweiten Qualifyingsession

Pos. Nr. Fahrer Team Zeit Abstand auf V. Rnd.
1 44 L. Hamilton Mercedes 1:34.660     10
2 77 V. Bottas Mercedes 1:35.396 +0:00.736 +0:00.736 10
3 33 M. Verstappen Red Bull 1:36.113 +0:01.453 +0:00.717 10
4 5 S. Vettel Ferrari 1:36.223 +0:01.563 +0:00.110 9
5 18 L. Stroll Williams 1:37.002 +0:02.342 +0:00.779 9
6 7 K. Räikkönen Ferrari 1:37.031 +0:02.371 +0:00.029 10
7 3 D. Ricciardo Red Bull 1:37.313 +0:02.653 +0:00.282 9
8 19 F. Massa Williams 1:37.456 +0:02.796 +0:00.143 9
9 2 S. Vandoorne McLaren 1:37.471 +0:02.811 +0:00.015 10
10 31 E. Ocon Force India 1:37.580 +0:02.920 +0:00.109 10
11 11 S. Perez Force India 1:37.582 +0:02.922 +0:00.002 9
12 27 N. Hülkenberg Renault 1:38.059 +0:03.399 +0:00.477 9
13 14 F. Alonso McLaren 1:38.202 +0:03.542 +0:00.143 4
14 26 D. Kwjat Toro Rosso 1:38.245 +0:03.585 +0:00.043 10
15 55 C. Sainz Toro Rosso 1:38.526 +0:03.866 +0:00.281 10
  107-Prozent-Zeit 1:41.286
auf V. = auf Vordermann, Rnd. = Runden

 

Klassement der ersten Qualifyingsession

Pos. Nr. Fahrer Team Zeit Abstand auf V. Rnd.
1 77 V. Bottas Mercedes 1:35.716     12
2 44 L. Hamilton Mercedes 1:36.009 +0:00.293 +0:00.293 11
3 5 S. Vettel Ferrari 1:37.198 +0:01.482 +0:01.189 11
4 33 M. Verstappen Red Bull 1:37.344 +0:01.628 +0:00.146 11
5 18 L. Stroll Williams 1:37.653 +0:01.937 +0:00.309 10
6 7 K. Räikkönen Ferrari 1:38.235 +0:02.519 +0:00.582 12
7 3 D. Ricciardo Red Bull 1:38.304 +0:02.588 +0:00.069 9
8 19 F. Massa Williams 1:38.338 +0:02.622 +0:00.034 10
9 11 S. Perez Force India 1:38.511 +0:02.795 +0:00.173 10
10 2 S. Vandoorne McLaren 1:38.767 +0:03.051 +0:00.256 10
11 31 E. Ocon Force India 1:38.775 +0:03.059 +0:00.008 11
12 14 F. Alonso McLaren 1:39.134 +0:03.418 +0:00.359 7
13 26 D. Kwjat Toro Rosso 1:39.183 +0:03.467 +0:00.049 11
14 27 N. Hülkenberg Renault 1:39.242 +0:03.526 +0:00.059 11
15 55 C. Sainz Toro Rosso 1:39.788 +0:04.072 +0:00.546 11
16 20 K. Magnussen Haas F1 1:40.489 +0:04.773 +0:00.701 12
17 30 J. Palmer Renault 1:40.646 +0:04.930 +0:00.157 10
18 9 M. Ericsson Sauber 1:41.732 +0:06.016 +0:01.086 11
19 94 P. Wehrlein Sauber 1:41.875 +0:06.159 +0:00.143 9
  107-Prozent-Zeit 1:42.416
20 8 R. Grosjean Haas F1 1:43.355 +0:07.639 +0:01.480 3
auf V. = auf Vordermann, Rnd. = Runden

 

 

 
Nach oben